[[{"header":{"parameterUnit":"m.s-1","parameterCategory":1,"la1":30.2991,"la2":30.254,"lo1":-89.0895,"lo2":-89.0444,"dy":0.0017,"dx":0.0017,"nx":28,"ny":28,"refTime":"2025-09-09T03:00:00:Z","depth":0,"parameterNumber":2,"parameterNumberName":"U-component_of_WINDS"},"data":[0,0,0,0,0,0,0,0,0,0,0,0,0,0,0,0,0,0,0,0,0,0,0,0,0,0,0,0,0,0,0,0,0,0,0,0,0,0,0,0,0,0,0,0,0,0,0,0,0,0,0,0,0,0,0,0,0,0,-2.001,-2.0014,0,-2.0461,-2.0466,-2.0471,-2.0609,-2.0607,-2.0604,-2.0602,-2.1082,-2.1096,-2.1111,0,0,0,0,0,0,0,0,0,0,0,0,0,-1.9285,-1.9297,-2.0009,-2.0015,-2.0021,-2.046,-2.0466,-2.0472,-2.0609,-2.0607,-2.0604,-2.0601,-2.1077,-2.1095,-2.1112,0,0,0,0,0,0,0,0,0,0,0,0,0,-1.9654,-1.9302,-2.0008,-2.0141,-2.0158,-2.0459,-2.0466,-2.0474,-2.061,-2.0607,-2.0603,-2.06,-2.1071,-2.1093,-2.1115,-2.1321,0,0,-2.1183,-2.1193,0,0,0,0,0,0,0,0,-1.9633,-1.9681,-2.0116,-2.0133,-2.0152,-2.0475,-2.0387,-2.0759,-2.0611,-2.0439,-2.0602,-2.0598,-2.0884,-2.0921,-2.1014,-2.1343,-2.1364,-2.1185,-2.1199,-2.1208,-2.1215,0,0,0,0,0,0,0,-1.9608,-1.9662,-2.0189,-2.0123,-2.0144,-2.0185,-2.0234,-2.0458,-2.0676,-2.0454,-2.0465,-2.0515,-2.0893,-2.0992,-2.1026,-2.1371,-2.1184,-2.1204,-2.1218,-2.1227,-2.1899,-2.1903,0,0,0,0,0,0,-1.9557,-1.964,-2.0174,-2.0202,-1.9878,-2.0201,-2.0255,-2.0375,-2.0673,-2.0715,-2.0518,-2.052,-2.0956,-2.1,-2.1044,-2.1308,-2.1208,-2.1229,-2.1242,-2.1894,-2.19,-2.1905,0,0,0,0,0,0,-1.9541,-1.9603,-2.0156,-1.9924,-1.9998,-2.0217,-2.035,-2.0386,-2.0485,-2.0721,-2.0763,-2.0578,-2.0955,-2.1012,-2.1251,-2.1326,-2.1239,-2.1259,-2.1889,-2.1896,-2.1902,-2.1835,0,0,0,0,0,0,-1.9519,-1.9596,-1.9672,-1.9925,-2.0009,-2.0349,-2.0355,-2.0397,-2.0521,-2.0528,-2.0789,-2.0829,-2.0956,-2.1217,-2.1273,-2.1355,-2.1277,-2.1884,-2.1892,-2.19,-2.1831,-2.1838,-2.1844,0,0,0,0,0,-1.9493,-1.9638,-1.9675,-1.9739,-2.0108,-2.0353,-2.0403,-2.0541,-2.0526,-2.0607,-2.0761,-2.0821,-2.1308,-2.124,-2.1305,-2.1395,-2.1879,-2.189,-2.19,-2.1829,-2.1837,-2.1844,0,0,0,0,0,0,-1.9394,-1.9673,-1.9718,-1.9948,-2.0125,-2.0376,-2.0482,-2.0545,-2.0735,-2.0735,-2.0904,-2.0962,-2.119,-2.1317,-2.1235,-2.1613,-2.1597,-2.162,-2.1521,-2.1531,-2.1537,-2.1503,-2.1295,0,0,0,0,0,-1.9397,-1.9568,-1.9806,-1.9986,-2.0072,-2.0261,-2.0374,-2.0465,-2.0658,-2.0736,-2.0906,-2.1096,-2.1293,-2.1419,-2.1613,-2.1851,-2.1913,-2.1945,-2.1951,-2.1956,-2.1975,-2.2115,-2.2133,-2.1938,-2.1938,-2.1937,0,0,-1.941,-1.9583,-1.9681,-1.9971,-2.0119,-2.0297,-2.0324,-2.0511,-2.0647,-2.0766,-2.1001,-2.1133,-2.1357,-2.1596,-2.1711,-2.171,-2.2042,-2.1968,-2.197,-2.1987,-2.2127,-2.2145,-2.2161,-2.1944,-2.1943,-2.1942,0,0,-1.9522,-1.9668,-1.9836,-1.9984,-2.0206,-2.0331,-2.0371,-2.0614,-2.0705,-2.0942,-2.1036,-2.1204,-2.1537,-2.1694,-2.1818,-2.1993,-2.2057,-2.2052,-2.2087,-2.2221,-2.2236,-2.2251,-2.2317,-2.2338,-2.207,-2.207,-2.207,0,-1.951,-1.9776,-1.9916,-2.0098,-2.0225,-2.0336,-2.0511,-2.0649,-2.0926,-2.1014,-2.1007,-2.143,-2.1589,-2.1869,-2.1911,-2.2007,-2.2063,-2.2023,-2.2221,-2.2238,-2.2254,-2.2318,-2.2342,-2.2068,-2.2068,-2.2068,-2.2068,0,-1.9753,-1.9937,-2.0047,-2.0305,-2.0445,-2.0622,-2.0795,-2.0921,-2.1001,-2.1129,-2.1373,-2.1567,-2.1804,-2.1877,-2.1959,-2.2171,-2.2163,-2.2187,-2.2175,-2.2267,-2.2332,-2.2357,-2.2065,-2.2065,-2.2066,-2.2067,0,0,-1.9814,-2.0148,-2.0186,-2.0306,-2.0561,-2.071,-2.0896,-2.1122,-2.1228,-2.1417,-2.1581,-2.1862,-2.1886,-2.2026,-2.2128,-2.2245,-2.2376,-2.2256,-2.2264,-2.2273,-2.2626,-2.2607,-2.2633,-2.242,-2.2425,-2.2429,-2.2608,0,-1.9961,-2.0289,-2.0422,-2.0692,-2.0867,-2.0977,-2.114,-2.1317,-2.1443,-2.1615,-2.1758,-2.1954,-2.197,-2.2055,-2.2176,-2.2333,-2.2449,-2.2323,-2.258,-2.2587,-2.252,-2.2666,-2.2646,-2.2805,-2.2634,-2.2638,-2.2641,0,-2.0175,-2.036,-2.0645,-2.0881,-2.096,-2.1102,-2.1323,-2.1483,-2.169,-2.1774,-2.1931,-2.2026,-2.2232,-2.2206,-2.2496,-2.2406,-2.2521,-2.2614,-2.2624,-2.2655,-2.262,-2.2703,-2.2859,-2.2883,-2.2681,-2.2678,-2.2675,0,-2.0194,-2.0515,-2.0728,-2.0827,-2.1108,-2.1206,-2.1329,-2.1531,-2.166,-2.1855,-2.1942,-2.216,-2.228,-2.245,-2.2604,-2.257,-2.2882,-2.2867,-2.2963,-2.2959,-2.3024,-2.3018,-2.3202,-2.3094,-2.3094,-2.3093,-2.3093,0,-2.0344,-2.0515,-2.074,-2.0871,-2.1068,-2.1222,-2.1416,-2.1547,-2.1727,-2.1891,-2.2002,-2.2154,-2.2348,-2.2528,-2.2651,-2.2875,-2.2928,-2.3006,-2.3037,-2.2997,-2.2987,-2.3075,-2.3069,-2.31,-2.3098,-2.3097,-2.3096,0,-2.0398,-2.0555,-2.0795,-2.104,-2.1106,-2.1241,-2.1454,-2.159,-2.172,-2.1927,-2.1985,-2.2193,-2.2411,-2.2581,-2.2866,-2.2949,-2.3186,-2.322,-2.3114,-2.3131,-2.3217,-2.3207,-2.3465,-2.3509,-2.3368,-2.337,-2.337,0,-2.0484,-2.0618,-2.0876,-2.0991,-2.1111,-2.1295,-2.1426,-2.1585,-2.1718,-2.1965,-2.2072,-2.2296,-2.2484,-2.2828,-2.3009,-2.3229,-2.327,-2.3346,-2.3304,-2.3261,-2.3275,-2.3265,-2.3281,-2.3351,-2.3351,-2.3352,-2.3352,0,-2.0621,-2.0692,-2.0873,-2.1083,-2.1234,-2.1409,-2.1586,-2.1676,-2.1869,-2.2014,-2.2234,-2.2379,-2.2669,-2.2893,-2.3131,-2.3266,-2.3344,-2.3364,-2.3398,-2.3359,-2.3293,-2.3332,-2.313,-2.3357,-2.3357,-2.3357,-2.3356,-2.3356,-2.0696,-2.0821,-2.1022,-2.1222,-2.1371,-2.1534,-2.1673,-2.1821,-2.2006,-2.2249,-2.2335,-2.2563,-2.2773,-2.3101,-2.3237,-2.3423,-2.3428,-2.3477,-2.349,-2.35,-2.3496,-2.3261,-2.3468,-2.3468,-2.3468,-2.3468,-2.3468,0,-2.084,-2.0975,-2.1156,-2.1399,-2.1557,-2.161,-2.1811,-2.1942,-2.2139,-2.2325,-2.2506,-2.2763,-2.2981,-2.3179,-2.3408,-2.352,-2.3562,-2.3575,-2.3569,-2.36,-2.3478,-2.3426,-2.3537,-2.3537,-2.3537,-2.3537,-2.3537,-2.3537,-2.0933,-2.1148,-2.1244,-2.1536,-2.1673,-2.1892,-2.2002,-2.2156,-2.2306,-2.2584,-2.2764,-2.289,-2.3084,-2.3328,-2.3533,-2.3587,-2.3667,-2.3672,-2.3735,-2.3617,-2.3608,-2.3599,-2.3551,-2.3687,-2.3687,-2.3842,-2.3843,-2.3844]},{"header":{"parameterUnit":"m.s-1","parameterCategory":1,"la1":30.2991,"la2":30.254,"lo1":-89.0895,"lo2":-89.0444,"dy":0.0017,"dx":0.0017,"nx":28,"ny":28,"refTime":"2025-09-09T03:00:00:Z","depth":0,"parameterNumber":3,"parameterNumberName":"V-component_of_WINDS"},"data":[0,0,0,0,0,0,0,0,0,0,0,0,0,0,0,0,0,0,0,0,0,0,0,0,0,0,0,0,0,0,0,0,0,0,0,0,0,0,0,0,0,0,0,0,0,0,0,0,0,0,0,0,0,0,0,0,0,0,-3.7814,-3.7812,0,-3.7673,-3.7671,-3.767,-3.7509,-3.7507,-3.7504,-3.7502,-3.735,-3.7348,-3.7346,0,0,0,0,0,0,0,0,0,0,0,0,0,-3.7936,-3.7935,-3.7814,-3.7812,-3.781,-3.7673,-3.7671,-3.7669,-3.7509,-3.7506,-3.7504,-3.7501,-3.7351,-3.7348,-3.7346,0,0,0,0,0,0,0,0,0,0,0,0,0,-3.7848,-3.7935,-3.7814,-3.7714,-3.7704,-3.7674,-3.7671,-3.7669,-3.751,-3.7506,-3.7503,-3.7499,-3.7351,-3.7349,-3.7346,-3.7401,0,0,-3.7338,-3.7336,0,0,0,0,0,0,0,0,-3.7853,-3.7844,-3.7731,-3.7721,-3.7709,-3.7605,-3.7659,-3.7579,-3.7511,-3.7583,-3.7502,-3.7498,-3.7437,-3.7427,-3.7408,-3.7394,-3.7387,-3.7337,-3.7336,-3.7335,-3.7334,0,0,0,0,0,0,0,-3.786,-3.7849,-3.7758,-3.7729,-3.7716,-3.7674,-3.7657,-3.7643,-3.7532,-3.7577,-3.7565,-3.7551,-3.7431,-3.7412,-3.7404,-3.7385,-3.7337,-3.7335,-3.7333,-3.7332,-3.7406,-3.741,0,0,0,0,0,0,-3.7882,-3.7855,-3.7762,-3.7754,-3.7774,-3.7675,-3.7656,-3.7642,-3.7532,-3.7511,-3.7554,-3.7544,-3.7418,-3.7407,-3.7398,-3.7454,-3.7335,-3.7332,-3.733,-3.7403,-3.7407,-3.7411,0,0,0,0,0,0,-3.7885,-3.7875,-3.7768,-3.7801,-3.7784,-3.7676,-3.7662,-3.7641,-3.7622,-3.7514,-3.7493,-3.7555,-3.7415,-3.7402,-3.7401,-3.7447,-3.7331,-3.7328,-3.7398,-3.7404,-3.7409,-3.7568,0,0,0,0,0,0,-3.7889,-3.7877,-3.7899,-3.7803,-3.7783,-3.7777,-3.7664,-3.7641,-3.7618,-3.7604,-3.751,-3.7491,-3.7411,-3.7406,-3.7399,-3.7441,-3.7326,-3.7394,-3.7401,-3.7407,-3.7558,-3.7578,-3.7595,0,0,0,0,0,-3.7894,-3.7948,-3.7901,-3.7891,-3.7808,-3.778,-3.7768,-3.7678,-3.7623,-3.7642,-3.7573,-3.7494,-3.7443,-3.7408,-3.7398,-3.744,-3.739,-3.7399,-3.7407,-3.755,-3.7574,-3.7595,0,0,0,0,0,0,-3.8049,-3.7933,-3.788,-3.7904,-3.7854,-3.7753,-3.7775,-3.7706,-3.7668,-3.7656,-3.7542,-3.7522,-3.7535,-3.7486,-3.745,-3.7486,-3.7405,-3.7412,-3.7518,-3.754,-3.7558,-3.7569,-3.7324,0,0,0,0,0,-3.8087,-3.8076,-3.7974,-3.8005,-3.7983,-3.7884,-3.7868,-3.7803,-3.7744,-3.7721,-3.7652,-3.7596,-3.7567,-3.755,-3.7518,-3.755,-3.7527,-3.7574,-3.7592,-3.7608,-3.7615,-3.7627,-3.7647,-3.7437,-3.7437,-3.7437,0,0,-3.8163,-3.8098,-3.8098,-3.8035,-3.7988,-3.7977,-3.7867,-3.786,-3.785,-3.7719,-3.7716,-3.7663,-3.7593,-3.761,-3.7613,-3.757,-3.7668,-3.7618,-3.7632,-3.763,-3.7638,-3.7658,-3.7676,-3.7443,-3.7442,-3.7441,0,0,-3.8297,-3.8248,-3.8268,-3.8224,-3.8155,-3.8089,-3.8094,-3.8004,-3.7965,-3.796,-3.7862,-3.7846,-3.78,-3.7754,-3.7724,-3.7841,-3.7766,-3.7833,-3.793,-3.7944,-3.796,-3.7974,-3.8016,-3.8032,-3.7841,-3.7841,-3.7841,0,-3.84,-3.8382,-3.8287,-3.8287,-3.8261,-3.8145,-3.8164,-3.8124,-3.8048,-3.8031,-3.7984,-3.7923,-3.7868,-3.7872,-3.7901,-3.7881,-3.7881,-3.7844,-3.7966,-3.7979,-3.7991,-3.8029,-3.8045,-3.785,-3.7849,-3.7848,-3.7847,0,-3.8512,-3.8501,-3.8526,-3.8458,-3.8434,-3.8444,-3.8348,-3.8335,-3.8272,-3.821,-3.8206,-3.8136,-3.8087,-3.8083,-3.8019,-3.8077,-3.8053,-3.7988,-3.7904,-3.8021,-3.8055,-3.8069,-3.7862,-3.7859,-3.7856,-3.7854,0,0,-3.8739,-3.8619,-3.863,-3.8597,-3.8513,-3.8501,-3.8504,-3.846,-3.8451,-3.8401,-3.84,-3.8364,-3.8303,-3.827,-3.82,-3.8212,-3.8309,-3.8145,-3.8141,-3.8178,-3.8367,-3.8417,-3.8436,-3.8259,-3.8261,-3.8263,-3.8373,0,-3.8858,-3.886,-3.8774,-3.8798,-3.8786,-3.8676,-3.8678,-3.8625,-3.8568,-3.8547,-3.8481,-3.8457,-3.8379,-3.8359,-3.8366,-3.8296,-3.8345,-3.8287,-3.8254,-3.8254,-3.8276,-3.8453,-3.8506,-3.8613,-3.8386,-3.8388,-3.8389,0,-3.8996,-3.8958,-3.8983,-3.8898,-3.8889,-3.8894,-3.8845,-3.8828,-3.8765,-3.8721,-3.8686,-3.8607,-3.8601,-3.8523,-3.8512,-3.8474,-3.8455,-3.8419,-3.8421,-3.8414,-3.8329,-3.8451,-3.8645,-3.8662,-3.8409,-3.8407,-3.8406,0,-3.916,-3.9114,-3.9122,-3.9098,-3.8999,-3.9005,-3.8963,-3.8897,-3.8875,-3.8832,-3.8816,-3.8772,-3.8748,-3.8714,-3.8625,-3.8576,-3.8624,-3.8538,-3.8586,-3.8589,-3.8602,-3.8602,-3.8796,-3.859,-3.859,-3.859,-3.8589,0,-3.9301,-3.932,-3.9195,-3.92,-3.9218,-3.9118,-3.9137,-3.9084,-3.9026,-3.9018,-3.8918,-3.8911,-3.8794,-3.8773,-3.8702,-3.8704,-3.8693,-3.8657,-3.8638,-3.8666,-3.8671,-3.8652,-3.8642,-3.8594,-3.8593,-3.8592,-3.8591,0,-3.9486,-3.9403,-3.9405,-3.9312,-3.9289,-3.9307,-3.9225,-3.9225,-3.9161,-3.9151,-3.9143,-3.9042,-3.9013,-3.8921,-3.8867,-3.8819,-3.8842,-3.8805,-3.8864,-3.8852,-3.8906,-3.8902,-3.9094,-3.9114,-3.8897,-3.8899,-3.8901,0,-3.9582,-3.9594,-3.9504,-3.9492,-3.9456,-3.9438,-3.9417,-3.9318,-3.9299,-3.9228,-3.9236,-3.92,-3.9165,-3.9122,-3.9042,-3.9,-3.8962,-3.9032,-3.8955,-3.8983,-3.8963,-3.8964,-3.8964,-3.9049,-3.9052,-3.9054,-3.9056,0,-3.976,-3.9719,-3.9693,-3.9654,-3.9631,-3.9594,-3.9551,-3.9546,-3.9436,-3.9419,-3.939,-3.9363,-3.931,-3.9274,-3.9219,-3.9172,-3.9096,-3.9082,-3.909,-3.9119,-3.9153,-3.9135,-3.891,-3.9077,-3.9075,-3.9074,-3.9073,-3.9072,-3.9903,-3.991,-3.9847,-3.9821,-3.9779,-3.9742,-3.9737,-3.9674,-3.9649,-3.96,-3.9542,-3.9519,-3.9454,-3.9374,-3.9333,-3.9311,-3.927,-3.9283,-3.9286,-3.9291,-3.9304,-3.9157,-3.9301,-3.93,-3.9299,-3.9299,-3.9298,0,-4.0077,-4.0031,-4.0009,-3.9954,-3.9933,-3.9866,-3.9814,-3.9801,-3.9783,-3.9731,-3.97,-3.9665,-3.963,-3.9548,-3.9504,-3.9502,-3.9466,-3.9494,-3.9493,-3.9483,-3.9344,-3.9341,-3.9524,-3.9524,-3.9524,-3.9524,-3.9524,-3.9524,-4.0165,-4.0172,-4.0123,-4.0108,-4.0061,-4.0041,-4.0017,-3.9981,-3.9938,-3.9906,-3.9877,-3.9825,-3.976,-3.9711,-3.9674,-3.9651,-3.9639,-3.9679,-3.9644,-3.9515,-3.9493,-3.9473,-3.9469,-3.9677,-3.9677,-3.9785,-3.9786,-3.9787]}]]